Find Te Punaha Atea-1

NORAD ID: 64533 Int'l Des: 2025-135 Owner: TPA Country: NZ operational
LEOCIRCULARRETROGRADESSO

現在のビュー

3D地球を読み込み中...

About Te Punaha Atea-1

Te Punaha Atea-1 (NORAD 64533) is a satellite launched Jun 23, 2025 by TPA of NZ. It operates in LEO, CIRCULAR, RETROGRADE, SSO orbit with a mass of 5.00 kg.

次回通過

Passes for default location (London). Set your location on the main map for personalized predictions.

高度履歴

Loading altitude history...

軌道要素

1 64533U 25135F 26194.83880742 .00004560 00000-0 20445-3 0 9992
2 64533 97.4714 309.5753 0006674 97.9882 262.2111 15.21710065 58908
Epoch: Jul 13, 2026 • Age: 9 hours

現在のステータス

高度 510.1 km
遠地点 / 近地点 N/A
速度 7.61 km/s
衛星直下点 -19.13°S, 62.29°W
打ち上げ日 Jun 23, 2025
運用期間 1 year
タイプ other

技術仕様

分類 Payload
質量 5.00 kg
乾燥質量 5.00 kg
総質量 5.00 kg
長さ 0.30 m
直径 0.10 m
スパン 3.00 m
形状 Box
製造者 NANAV/TPA
バスタイプ Cubesat 3U
フェーズステータス In Orbit
所有者/国 TPA/NZ

Most Searched